• In Deutschland
  • Länderverzeichnis
  • Für 7 Tage
  • Wassertemperatur
  • Satellitenkarten
  • Wetterkarte
  • Widgets
  • user-avatar
    Anmelden

    Stündliche Wetter Baotou

    Heute, 23 Juli, Montag

    Zeit Temperatur Niederschläge Wind Luftdruck Luftfeuchtigkeit
    00:00 +29°C° 0,1 mm 3 m/S 667 mmHg 51%
    01:00 +28°C° 0 mm 3 m/S 667 mmHg 53%
    02:00 +28°C° 0,5 mm 3 m/S 667 mmHg 58%
    03:00 +27°C° 0,5 mm 3 m/S 667 mmHg 62%
    04:00 +26°C° 0,5 mm 2 m/S 667 mmHg 67%
    05:00 +27°C° 0,9 mm 2 m/S 667 mmHg 66%
    06:00 +27°C° 0,9 mm 2 m/S 667 mmHg 66%
    07:00 +27°C° 0 mm 1 m/S 667 mmHg 64%
    08:00 +28°C° 0,3 mm 2 m/S 667 mmHg 60%
    09:00 +29°C° 0,3 mm 3 m/S 667 mmHg 56%
    10:00 +30°C° 0,3 mm 4 m/S 667 mmHg 51%
    11:00 +30°C° 0,2 mm 4 m/S 667 mmHg 49%
    12:00 +32°C° 0,2 mm 4 m/S 667 mmHg 46%
    13:00 +32°C° 0 mm 5 m/S 667 mmHg 46%
    14:00 +32°C° 0,1 mm 5 m/S 666 mmHg 46%
    15:00 +33°C° 0,1 mm 5 m/S 666 mmHg 46%
    16:00 +33°C° 0,1 mm 5 m/S 666 mmHg 46%
    17:00 +32°C° 0,3 mm 4 m/S 665 mmHg 48%
    18:00 +30°C° 0,3 mm 4 m/S 665 mmHg 50%
    19:00 +30°C° 0,3 mm 3 m/S 665 mmHg 52%
    20:00 +29°C° 1,3 mm 3 m/S 665 mmHg 58%
    21:00 +28°C° 1,3 mm 3 m/S 665 mmHg 63%
    22:00 +27°C° 1,3 mm 3 m/S 665 mmHg 68%
    23:00 +26°C° 2 mm 2 m/S 665 mmHg 71%

    Morgen, 24 Juli, Dienstag

    Zeit Temperatur Niederschläge Wind Luftdruck Luftfeuchtigkeit
    00:00 +26°C° 2 mm 2 m/S 665 mmHg 73%
    01:00 +25°C° 2 mm 2 m/S 664 mmHg 76%
    02:00 +25°C° 1,2 mm 2 m/S 664 mmHg 77%
    03:00 +25°C° 1,2 mm 1 m/S 664 mmHg 78%
    04:00 +24°C° 1,2 mm 1 m/S 664 mmHg 79%
    05:00 +24°C° 1 mm 1 m/S 664 mmHg 78%
    06:00 +24°C° 1 mm 1 m/S 664 mmHg 78%
    07:00 +24°C° 1 mm 1 m/S 665 mmHg 78%
    08:00 +25°C° 0,1 mm 2 m/S 665 mmHg 71%
    09:00 +27°C° 0,1 mm 2 m/S 665 mmHg 64%
    10:00 +28°C° 0,1 mm 2 m/S 666 mmHg 57%
    11:00 +29°C° 0 mm 3 m/S 666 mmHg 50%
    12:00 +31°C° 0 mm 3 m/S 666 mmHg 44%
    13:00 +33°C° 0 mm 4 m/S 666 mmHg 37%
    14:00 +33°C° 0 mm 4 m/S 666 mmHg 36%
    15:00 +34°C° 0 mm 5 m/S 666 mmHg 35%
    16:00 +34°C° 0 mm 6 m/S 665 mmHg 33%
    17:00 +33°C° 0 mm 5 m/S 665 mmHg 37%
    18:00 +30°C° 0 mm 5 m/S 665 mmHg 41%
    19:00 +29°C° 0 mm 5 m/S 665 mmHg 45%
    20:00 +28°C° 0 mm 4 m/S 665 mmHg 47%
    21:00 +28°C° 0 mm 4 m/S 666 mmHg 49%
    22:00 +27°C° 0 mm 3 m/S 666 mmHg 51%
    23:00 +26°C° 0 mm 3 m/S 666 mmHg 53%

    übermorgen, 25 Juli, Mittwoch

    Zeit Temperatur Niederschläge Wind Luftdruck Luftfeuchtigkeit
    00:00 +25°C° 0 mm 3 m/S 666 mmHg 55%
    01:00 +25°C° 0 mm 3 m/S 666 mmHg 56%
    02:00 +24°C° 0 mm 2 m/S 666 mmHg 58%
    03:00 +24°C° 0 mm 2 m/S 666 mmHg 60%
    04:00 +23°C° 0 mm 2 m/S 666 mmHg 62%
    05:00 +24°C° 0 mm 2 m/S 666 mmHg 59%
    06:00 +25°C° 0 mm 2 m/S 667 mmHg 55%
    07:00 +26°C° 0 mm 2 m/S 667 mmHg 52%
    08:00 +27°C° 0 mm 3 m/S 667 mmHg 46%
    09:00 +28°C° 0 mm 3 m/S 668 mmHg 41%
    10:00 +29°C° 0 mm 3 m/S 668 mmHg 35%
    11:00 +30°C° 0 mm 3 m/S 668 mmHg 33%
    12:00 +31°C° 0 mm 3 m/S 667 mmHg 30%
    13:00 +33°C° 0 mm 3 m/S 667 mmHg 28%
    14:00 +33°C° 0 mm 3 m/S 667 mmHg 27%
    15:00 +34°C° 0 mm 4 m/S 667 mmHg 26%
    16:00 +34°C° 0 mm 4 m/S 666 mmHg 26%
    17:00 +33°C° 0 mm 4 m/S 666 mmHg 29%
    18:00 +32°C° 0 mm 4 m/S 666 mmHg 32%
    19:00 +30°C° 0 mm 4 m/S 666 mmHg 35%
    20:00 +29°C° 0 mm 4 m/S 666 mmHg 37%
    21:00 +28°C° 0 mm 4 m/S 667 mmHg 39%
    22:00 +27°C° 0 mm 4 m/S 667 mmHg 41%
    23:00 +27°C° 0 mm 4 m/S 667 mmHg 43%

    26 Juli, Donnerstag

    Zeit Temperatur Niederschläge Wind Luftdruck Luftfeuchtigkeit
    00:00 +26°C° 0 mm 4 m/S 666 mmHg 45%
    01:00 +25°C° 0 mm 4 m/S 666 mmHg 47%
    02:00 +25°C° 0 mm 4 m/S 666 mmHg 49%
    03:00 +25°C° 0 mm 4 m/S 666 mmHg 50%
    04:00 +24°C° 0 mm 3 m/S 666 mmHg 52%
    05:00 +25°C° 0 mm 4 m/S 666 mmHg 51%
    06:00 +26°C° 0 mm 4 m/S 666 mmHg 50%
    07:00 +26°C° 0 mm 5 m/S 667 mmHg 49%
    08:00 +28°C° 0 mm 5 m/S 667 mmHg 48%
    09:00 +29°C° 0 mm 5 m/S 667 mmHg 46%
    10:00 +32°C° 0 mm 5 m/S 667 mmHg 45%
    11:00 +33°C° 0 mm 5 m/S 667 mmHg 40%
    12:00 +34°C° 0 mm 5 m/S 667 mmHg 36%
    13:00 +36°C° 0 mm 5 m/S 666 mmHg 32%
    14:00 +36°C° 0 mm 5 m/S 666 mmHg 30%
    15:00 +36°C° 0 mm 5 m/S 666 mmHg 29%
    16:00 +37°C° 0 mm 5 m/S 666 mmHg 27%
    17:00 +36°C° 0 mm 4 m/S 666 mmHg 30%
    18:00 +35°C° 0 mm 4 m/S 666 mmHg 33%
    19:00 +34°C° 0 mm 4 m/S 666 mmHg 36%
    20:00 +33°C° 0 mm 4 m/S 666 mmHg 39%
    21:00 +33°C° 0 mm 4 m/S 666 mmHg 42%
    22:00 +32°C° 0 mm 4 m/S 666 mmHg 45%
    23:00 +30°C° 0 mm 5 m/S 666 mmHg 51%

    27 Juli, Freitag

    Zeit Temperatur Niederschläge Wind Luftdruck Luftfeuchtigkeit
    00:00 +30°C° 0 mm 5 m/S 666 mmHg 57%
    01:00 +29°C° 0 mm 5 m/S 666 mmHg 62%
    02:00 +28°C° 0,2 mm 5 m/S 666 mmHg 66%
    03:00 +28°C° 0,2 mm 5 m/S 666 mmHg 69%
    04:00 +27°C° 0,2 mm 5 m/S 666 mmHg 72%
    05:00 +27°C° 0,4 mm 5 m/S 666 mmHg 71%
    06:00 +27°C° 0,4 mm 6 m/S 666 mmHg 70%
    07:00 +28°C° 0,4 mm 6 m/S 666 mmHg 69%
    08:00 +29°C° 0 mm 6 m/S 667 mmHg 63%
    09:00 +30°C° 0 mm 6 m/S 667 mmHg 57%
    10:00 +33°C° 0 mm 7 m/S 667 mmHg 51%
    11:00 +34°C° 0 mm 7 m/S 667 mmHg 48%
    12:00 +35°C° 0 mm 7 m/S 667 mmHg 44%
    13:00 +36°C° 0 mm 7 m/S 666 mmHg 41%
    14:00 +36°C° 0 mm 7 m/S 666 mmHg 41%
    15:00 +36°C° 0 mm 7 m/S 666 mmHg 40%
    16:00 +36°C° 0 mm 7 m/S 665 mmHg 40%
    17:00 +35°C° 0 mm 6 m/S 666 mmHg 42%
    18:00 +34°C° 0 mm 6 m/S 666 mmHg 45%
    19:00 +33°C° 0 mm 6 m/S 666 mmHg 48%
    20:00 +33°C° 0 mm 6 m/S 666 mmHg 51%
    21:00 +32°C° 0 mm 7 m/S 666 mmHg 54%
    22:00 +30°C° 0 mm 7 m/S 666 mmHg 57%
    23:00 +29°C° 0,1 mm 7 m/S 666 mmHg 60%

    28 Juli, Samstag

    Zeit Temperatur Niederschläge Wind Luftdruck Luftfeuchtigkeit
    00:00 +29°C° 0,1 mm 6 m/S 665 mmHg 63%
    01:00 +28°C° 0,1 mm 6 m/S 665 mmHg 66%
    02:00 +28°C° 0,1 mm 6 m/S 665 mmHg 68%
    03:00 +28°C° 0,1 mm 6 m/S 665 mmHg 70%
    04:00 +27°C° 0,1 mm 5 m/S 665 mmHg 72%
    05:00 +28°C° 0,1 mm 6 m/S 665 mmHg 70%
    06:00 +28°C° 0,1 mm 7 m/S 665 mmHg 69%
    07:00 +28°C° 0,1 mm 7 m/S 666 mmHg 67%
    08:00 +30°C° 0,1 mm 7 m/S 666 mmHg 62%
    09:00 +32°C° 0,1 mm 7 m/S 666 mmHg 57%
    10:00 +33°C° 0,1 mm 7 m/S 666 mmHg 52%
    11:00 +34°C° 0 mm 7 m/S 666 mmHg 49%
    12:00 +35°C° 0 mm 7 m/S 666 mmHg 45%
    13:00 +36°C° 0 mm 7 m/S 665 mmHg 42%
    14:00 +38°C° 0 mm 6 m/S 665 mmHg 41%
    15:00 +38°C° 0 mm 6 m/S 665 mmHg 40%
    16:00 +37°C° 0 mm 5 m/S 665 mmHg 40%
    17:00 +36°C° 0 mm 5 m/S 665 mmHg 42%
    18:00 +35°C° 0 mm 4 m/S 665 mmHg 43%
    19:00 +35°C° 0 mm 4 m/S 665 mmHg 45%
    20:00 +34°C° 0 mm 4 m/S 665 mmHg 46%
    21:00 +34°C° 0 mm 4 m/S 665 mmHg 47%
    22:00 +33°C° 0 mm 5 m/S 665 mmHg 49%
    23:00 +33°C° 0 mm 4 m/S 665 mmHg 51%
    Mehr zeigen